Location: Unspecified
(46.0725°N, 13.7344°E)
Time: 19:07:45
(UTC+01:00)

ISS - Visible Passes

Search period start: 17 January 2018 00:00
Search period end: 27 January 2018 00:00
Orbit: 402 x 407 km, 51.6° (Epoch: 17 January)

Date Brightness Start Highest point End Pass type
(mag) Time Alt. Az. Time Alt. Az. Time Alt. Az.
17 Jan -0.9 05:19:47 11° SSE 05:19:47 11° SSE 05:19:55 10° SSE visible
24 Jan -1.3 19:02:28 10° S 19:03:06 13° S 19:03:06 13° S visible
25 Jan -1.6 18:11:26 10° SSE 18:12:52 12° SE 18:13:15 12° SE visible
25 Jan -0.7 19:45:35 10° SW 19:45:55 12° SW 19:45:55 12° SW visible
26 Jan -3.0 18:53:23 10° SW 18:55:59 40° S 18:55:59 40° S visible
